[{"OBJECT_NAME":"NUSAT-49 (KLARA DAN VON NEUMANN)","OBJECT_ID":"2024-149AJ","EPOCH":"2026-09-11T18:55:01.298208","MEAN_MOTION":15.29935461,"ECCENTRICITY":0.0002302,"INCLINATION":97.3741,"RA_OF_ASC_NODE":335.4624,"ARG_OF_PERICENTER":40.9587,"MEAN_ANOMALY":319.1826,"EPHEMERIS_TYPE":0,"CLASSIFICATION_TYPE":"U","NORAD_CAT_ID":60500,"ELEMENT_SET_NO":999,"REV_AT_EPOCH":11537,"BSTAR":0.00021795,"MEAN_MOTION_DOT":0.00006241,"MEAN_MOTION_DDOT":0},{"OBJECT_NAME":"FLOCK 4BE-11","OBJECT_ID":"2024-149AK","EPOCH":"2026-09-12T04:46:27.319584","MEAN_MOTION":15.46108082,"ECCENTRICITY":0.00024912,"INCLINATION":97.3659,"RA_OF_ASC_NODE":340.534,"ARG_OF_PERICENTER":327.1331,"MEAN_ANOMALY":32.9764,"EPHEMERIS_TYPE":0,"CLASSIFICATION_TYPE":"U","NORAD_CAT_ID":60501,"ELEMENT_SET_NO":999,"REV_AT_EPOCH":11578,"BSTAR":0.00065808759,"MEAN_MOTION_DOT":0.00032221,"MEAN_MOTION_DDOT":0},{"OBJECT_NAME":"YAM-7","OBJECT_ID":"2024-149AN","EPOCH":"2026-09-12T04:03:09.129888","MEAN_MOTION":15.32867654,"ECCENTRICITY":0.00031668,"INCLINATION":97.3733,"RA_OF_ASC_NODE":335.1028,"ARG_OF_PERICENTER":12.9994,"MEAN_ANOMALY":347.1329,"EPHEMERIS_TYPE":0,"CLASSIFICATION_TYPE":"U","NORAD_CAT_ID":60504,"ELEMENT_SET_NO":999,"REV_AT_EPOCH":11537,"BSTAR":0.00016636452,"MEAN_MOTION_DOT":0.00005202,"MEAN_MOTION_DDOT":0},{"OBJECT_NAME":"FLOCK 4BE-24","OBJECT_ID":"2024-149AP","EPOCH":"2026-09-12T00:59:14.862336","MEAN_MOTION":15.46457267,"ECCENTRICITY":0.00027625,"INCLINATION":97.3677,"RA_OF_ASC_NODE":340.6832,"ARG_OF_PERICENTER":341.4085,"MEAN_ANOMALY":18.7063,"EPHEMERIS_TYPE":0,"CLASSIFICATION_TYPE":"U","NORAD_CAT_ID":60505,"ELEMENT_SET_NO":999,"REV_AT_EPOCH":11577,"BSTAR":0.00073766202,"MEAN_MOTION_DOT":0.00036585,"MEAN_MOTION_DDOT":0},{"OBJECT_NAME":"LUR-1","OBJECT_ID":"2024-149AQ","EPOCH":"2026-09-12T04:37:45.655392","MEAN_MOTION":15.31092653,"ECCENTRICITY":0.00041026,"INCLINATION":97.3685,"RA_OF_ASC_NODE":333.4215,"ARG_OF_PERICENTER":19.013,"MEAN_ANOMALY":341.1264,"EPHEMERIS_TYPE":0,"CLASSIFICATION_TYPE":"U","NORAD_CAT_ID":60506,"ELEMENT_SET_NO":999,"REV_AT_EPOCH":11528,"BSTAR":0.00016302629,"MEAN_MOTION_DOT":0.0000482,"MEAN_MOTION_DDOT":0},{"OBJECT_NAME":"TANAGER-1","OBJECT_ID":"2024-149AR","EPOCH":"2026-09-11T23:57:56.145600","MEAN_MOTION":15.43937619,"ECCENTRICITY":0.00010213,"INCLINATION":97.2293,"RA_OF_ASC_NODE":348.7661,"ARG_OF_PERICENTER":29.0171,"MEAN_ANOMALY":331.1134,"EPHEMERIS_TYPE":0,"CLASSIFICATION_TYPE":"U","NORAD_CAT_ID":60507,"ELEMENT_SET_NO":999,"REV_AT_EPOCH":11643,"BSTAR":0.00029079318,"MEAN_MOTION_DOT":0.00013145,"MEAN_MOTION_DDOT":0},{"OBJECT_NAME":"EAGLEEYE","OBJECT_ID":"2024-149AS","EPOCH":"2026-09-11T19:08:26.961792","MEAN_MOTION":16.0362144,"ECCENTRICITY":0.0007211,"INCLINATION":97.3559,"RA_OF_ASC_NODE":354.4406,"ARG_OF_PERICENTER":261.2416,"MEAN_ANOMALY":98.8047,"EPHEMERIS_TYPE":0,"CLASSIFICATION_TYPE":"U","NORAD_CAT_ID":60508,"ELEMENT_SET_NO":999,"REV_AT_EPOCH":11663,"BSTAR":0.00094383,"MEAN_MOTION_DOT":0.00589934,"MEAN_MOTION_DDOT":0.00016547},{"OBJECT_NAME":"FLOCK 4BE-29","OBJECT_ID":"2024-149AT","EPOCH":"2026-09-12T04:58:17.429088","MEAN_MOTION":15.48737648,"ECCENTRICITY":0.00023736,"INCLINATION":97.3785,"RA_OF_ASC_NODE":342.6725,"ARG_OF_PERICENTER":37.4587,"MEAN_ANOMALY":322.6829,"EPHEMERIS_TYPE":0,"CLASSIFICATION_TYPE":"U","NORAD_CAT_ID":60509,"ELEMENT_SET_NO":999,"REV_AT_EPOCH":11586,"BSTAR":0.00032672732,"MEAN_MOTION_DOT":0.0001744,"MEAN_MOTION_DDOT":0},{"OBJECT_NAME":"TRANSPORTER-11 OBJECT AU","OBJECT_ID":"2024-149AU","EPOCH":"2026-09-11T18:59:25.842912","MEAN_MOTION":15.42460386,"ECCENTRICITY":0.0002955,"INCLINATION":97.3689,"RA_OF_ASC_NODE":339.321,"ARG_OF_PERICENTER":0.0615,"MEAN_ANOMALY":0.0632,"EPHEMERIS_TYPE":0,"CLASSIFICATION_TYPE":"U","NORAD_CAT_ID":60510,"ELEMENT_SET_NO":999,"REV_AT_EPOCH":11565,"BSTAR":0.00028149,"MEAN_MOTION_DOT":0.00012102,"MEAN_MOTION_DDOT":0},{"OBJECT_NAME":"FLOCK 4BE-2","OBJECT_ID":"2024-149AV","EPOCH":"2026-09-12T05:02:32.971776","MEAN_MOTION":15.64677627,"ECCENTRICITY":0.00029855,"INCLINATION":97.3781,"RA_OF_ASC_NODE":345.6734,"ARG_OF_PERICENTER":283.7304,"MEAN_ANOMALY":76.3623,"EPHEMERIS_TYPE":0,"CLASSIFICATION_TYPE":"U","NORAD_CAT_ID":60511,"ELEMENT_SET_NO":999,"REV_AT_EPOCH":11605,"BSTAR":0.00087404482,"MEAN_MOTION_DOT":0.00085235,"MEAN_MOTION_DDOT":0},{"OBJECT_NAME":"FLOCK 4BE-13","OBJECT_ID":"2024-149AW","EPOCH":"2026-09-11T19:06:47.925792","MEAN_MOTION":15.44380178,"ECCENTRICITY":0.0003071,"INCLINATION":97.3684,"RA_OF_ASC_NODE":340.2253,"ARG_OF_PERICENTER":328.3208,"MEAN_ANOMALY":31.7855,"EPHEMERIS_TYPE":0,"CLASSIFICATION_TYPE":"U","NORAD_CAT_ID":60512,"ELEMENT_SET_NO":999,"REV_AT_EPOCH":11572,"BSTAR":0.00065955,"MEAN_MOTION_DOT":0.00030442,"MEAN_MOTION_DDOT":0},{"OBJECT_NAME":"FLOCK 4BE-27","OBJECT_ID":"2024-149AX","EPOCH":"2026-09-12T03:33:28.867392","MEAN_MOTION":15.35794342,"ECCENTRICITY":0.00038273,"INCLINATION":97.3782,"RA_OF_ASC_NODE":337.1011,"ARG_OF_PERICENTER":16.0583,"MEAN_ANOMALY":344.0781,"EPHEMERIS_TYPE":0,"CLASSIFICATION_TYPE":"U","NORAD_CAT_ID":60513,"ELEMENT_SET_NO":999,"REV_AT_EPOCH":11548,"BSTAR":0.00020396652,"MEAN_MOTION_DOT":0.00007022,"MEAN_MOTION_DDOT":0},{"OBJECT_NAME":"FLOCK 4BE-9","OBJECT_ID":"2024-149AY","EPOCH":"2026-09-12T01:02:34.828224","MEAN_MOTION":15.43533739,"ECCENTRICITY":0.00022222,"INCLINATION":97.3754,"RA_OF_ASC_NODE":340.2938,"ARG_OF_PERICENTER":10.681,"MEAN_ANOMALY":349.4485,"EPHEMERIS_TYPE":0,"CLASSIFICATION_TYPE":"U","NORAD_CAT_ID":60514,"ELEMENT_SET_NO":999,"REV_AT_EPOCH":11570,"BSTAR":0.00067678119,"MEAN_MOTION_DOT":0.00030358,"MEAN_MOTION_DDOT":0},{"OBJECT_NAME":"FLOCK 4BE-6","OBJECT_ID":"2024-149BA","EPOCH":"2026-09-12T05:06:08.665056","MEAN_MOTION":15.42059801,"ECCENTRICITY":0.00027608,"INCLINATION":97.3749,"RA_OF_ASC_NODE":339.6419,"ARG_OF_PERICENTER":2.1933,"MEAN_ANOMALY":357.9326,"EPHEMERIS_TYPE":0,"CLASSIFICATION_TYPE":"U","NORAD_CAT_ID":60516,"ELEMENT_SET_NO":999,"REV_AT_EPOCH":11567,"BSTAR":0.0005808012,"MEAN_MOTION_DOT":0.00024769,"MEAN_MOTION_DDOT":0},{"OBJECT_NAME":"FLOCK 4BE-14","OBJECT_ID":"2024-149BB","EPOCH":"2026-09-12T00:59:57.818688","MEAN_MOTION":15.43844208,"ECCENTRICITY":0.00035133,"INCLINATION":97.3654,"RA_OF_ASC_NODE":339.703,"ARG_OF_PERICENTER":353.7448,"MEAN_ANOMALY":6.3756,"EPHEMERIS_TYPE":0,"CLASSIFICATION_TYPE":"U","NORAD_CAT_ID":60517,"ELEMENT_SET_NO":999,"REV_AT_EPOCH":11571,"BSTAR":0.00068985604,"MEAN_MOTION_DOT":0.00031279,"MEAN_MOTION_DDOT":0},{"OBJECT_NAME":"FLOCK 4BE-1","OBJECT_ID":"2024-149BC","EPOCH":"2026-09-12T03:46:05.041056","MEAN_MOTION":15.45650825,"ECCENTRICITY":0.00032188,"INCLINATION":97.3743,"RA_OF_ASC_NODE":341.4232,"ARG_OF_PERICENTER":353.0375,"MEAN_ANOMALY":7.0829,"EPHEMERIS_TYPE":0,"CLASSIFICATION_TYPE":"U","NORAD_CAT_ID":60518,"ELEMENT_SET_NO":999,"REV_AT_EPOCH":11579,"BSTAR":0.00066515234,"MEAN_MOTION_DOT":0.00032064,"MEAN_MOTION_DDOT":0},{"OBJECT_NAME":"FLOCK 4BE-28","OBJECT_ID":"2024-149BD","EPOCH":"2026-09-11T18:52:01.308000","MEAN_MOTION":15.4979702,"ECCENTRICITY":0.0003009,"INCLINATION":97.3714,"RA_OF_ASC_NODE":342.1801,"ARG_OF_PERICENTER":4.9414,"MEAN_ANOMALY":355.1866,"EPHEMERIS_TYPE":0,"CLASSIFICATION_TYPE":"U","NORAD_CAT_ID":60519,"ELEMENT_SET_NO":999,"REV_AT_EPOCH":11583,"BSTAR":0.00035957,"MEAN_MOTION_DOT":0.00019937,"MEAN_MOTION_DDOT":0},{"OBJECT_NAME":"IPERDRONE.0","OBJECT_ID":"2024-149BE","EPOCH":"2026-09-12T06:04:22.938528","MEAN_MOTION":15.84918104,"ECCENTRICITY":0.00041663,"INCLINATION":97.3719,"RA_OF_ASC_NODE":353.7724,"ARG_OF_PERICENTER":252.8233,"MEAN_ANOMALY":107.2581,"EPHEMERIS_TYPE":0,"CLASSIFICATION_TYPE":"U","NORAD_CAT_ID":60520,"ELEMENT_SET_NO":999,"REV_AT_EPOCH":11661,"BSTAR":0.00071082261,"MEAN_MOTION_DOT":0.00167951,"MEAN_MOTION_DDOT":0},{"OBJECT_NAME":"CONNECTA IOT-2","OBJECT_ID":"2024-149BG","EPOCH":"2026-09-12T03:51:09.387648","MEAN_MOTION":15.24712081,"ECCENTRICITY":0.00069796,"INCLINATION":97.3785,"RA_OF_ASC_NODE":331.9979,"ARG_OF_PERICENTER":30.9392,"MEAN_ANOMALY":329.2255,"EPHEMERIS_TYPE":0,"CLASSIFICATION_TYPE":"U","NORAD_CAT_ID":60522,"ELEMENT_SET_NO":999,"REV_AT_EPOCH":11514,"BSTAR":0.00028719051,"MEAN_MOTION_DOT":0.00007039,"MEAN_MOTION_DDOT":0},{"OBJECT_NAME":"CONNECTA IOT-4","OBJECT_ID":"2024-149BJ","EPOCH":"2026-09-12T04:42:40.344192","MEAN_MOTION":15.45507483,"ECCENTRICITY":0.00042418,"INCLINATION":97.3754,"RA_OF_ASC_NODE":340.7738,"ARG_OF_PERICENTER":342.0542,"MEAN_ANOMALY":18.0557,"EPHEMERIS_TYPE":0,"CLASSIFICATION_TYPE":"U","NORAD_CAT_ID":60524,"ELEMENT_SET_NO":999,"REV_AT_EPOCH":11575,"BSTAR":0.00045540571,"MEAN_MOTION_DOT":0.00021792,"MEAN_MOTION_DDOT":0},{"OBJECT_NAME":"ORESAT0.5","OBJECT_ID":"2024-149BK","EPOCH":"2026-09-11T00:55:05.820384","MEAN_MOTION":15.48168775,"ECCENTRICITY":0.0004078,"INCLINATION":97.3691,"RA_OF_ASC_NODE":341.5272,"ARG_OF_PERICENTER":337.8339,"MEAN_ANOMALY":22.2734,"EPHEMERIS_TYPE":0,"CLASSIFICATION_TYPE":"U","NORAD_CAT_ID":60525,"ELEMENT_SET_NO":999,"REV_AT_EPOCH":11574,"BSTAR":0.00033812,"MEAN_MOTION_DOT":0.00017701,"MEAN_MOTION_DDOT":0},{"OBJECT_NAME":"DEIMOS","OBJECT_ID":"2024-149BL","EPOCH":"2026-09-12T05:20:16.474560","MEAN_MOTION":15.47169942,"ECCENTRICITY":0.00041407,"INCLINATION":97.375,"RA_OF_ASC_NODE":342.8195,"ARG_OF_PERICENTER":341.3692,"MEAN_ANOMALY":18.7406,"EPHEMERIS_TYPE":0,"CLASSIFICATION_TYPE":"U","NORAD_CAT_ID":60526,"ELEMENT_SET_NO":999,"REV_AT_EPOCH":11589,"BSTAR":0.00030459413,"MEAN_MOTION_DOT":0.00015389,"MEAN_MOTION_DDOT":0},{"OBJECT_NAME":"CUAVA-2","OBJECT_ID":"2024-149BM","EPOCH":"2026-09-12T04:32:45.724704","MEAN_MOTION":15.37948309,"ECCENTRICITY":0.00058045,"INCLINATION":97.3681,"RA_OF_ASC_NODE":336.9458,"ARG_OF_PERICENTER":353.5633,"MEAN_ANOMALY":6.5536,"EPHEMERIS_TYPE":0,"CLASSIFICATION_TYPE":"U","NORAD_CAT_ID":60527,"ELEMENT_SET_NO":999,"REV_AT_EPOCH":11553,"BSTAR":0.00024694566,"MEAN_MOTION_DOT":0.00009138,"MEAN_MOTION_DDOT":0}]